Flag for Angola Weather past 2 weeks in Cabinda, Angola

Now
81 °F

Scattered clouds.


Feels Like: 85 °F
Forecast: 74 / 80 °F
Wind: 9 mph from North

Location: Pointe Airport-Noire

Current Time: May 29, 2015 at 11:56:26 AM

Latest Report: May 29, 2015 at 11:00 AM


Visibility: N/A

Pressure: 29.92 "Hg

Humidity: 74%

Dew point: 72 °F

Location of CabindaLocation

Historic Weather in Cabinda — Graph

°F

Cabinda temperature yesterday

Maximum temperature yesterday: 82 °F (at 1:00 PM)
Minimum temperature yesterday: 73 °F (at 1:00 AM)
Average temperature yesterday: 78 °F

Past Weeks' High & Low Weather Summary

 TemperatureHumidityPressure
High88 °F (May 16, 2:00 PM)100% (May 17, 7:00 AM)29.98 "Hg (May 17, 7:00 AM)
Low70 °F (May 29, 6:00 AM)22% (May 17, 2:00 AM)29.74 "Hg (May 14, 4:00 PM)
Average80 °F86%29.89 "Hg
* Reported May 14 10:00 AM — May 29 10:00 AM, Cabinda, Weather by CustomWeather, © 2015

Note: Actual official high and low records may vary slightly from our data, if they occured in-between our weather recording intervals... More about our weather records

Advertising

Cabinda weather history for previous 24 hours

 ConditionsComfort  
Time TempWeatherWind HumidityBarometerVisibility
10:00 AM
Fri, May 29
79 °FBroken clouds.7 mph74%29.92 "HgN/A
9:00 AM77 °FPartly sunny.8 mph83%29.92 "Hg5 mi
8:00 AM73 °FPartly sunny.5 mph94%29.92 "Hg4 mi
7:00 AM72 °FScattered clouds.2 mph94%29.89 "Hg4 mi
6:00 AM70 °FPassing clouds.3 mph100%29.89 "Hg4 mi
5:00 AM72 °FPassing clouds.3 mph94%29.89 "Hg4 mi
4:00 AM72 °FPassing clouds.2 mph100%29.89 "Hg4 mi
3:00 AM73 °FPassing clouds.5 mph94%29.89 "Hg4 mi
2:00 AM75 °FPassing clouds.3 mph89%29.89 "Hg5 mi
1:00 AM77 °FPassing clouds.5 mph83%29.92 "Hg5 mi
12:00 AM77 °FPassing clouds.5 mph83%29.92 "Hg5 mi
11:00 PM
Thu, May 28
79 °FPassing clouds.5 mph79%29.92 "Hg5 mi
10:00 PM77 °FOvercast.5 mph83%29.89 "Hg5 mi
9:00 PM77 °FOvercast.6 mph83%29.89 "Hg5 mi
8:00 PM79 °FOvercast.5 mph79%29.86 "Hg5 mi
7:00 PM79 °FOvercast.6 mph79%29.83 "Hg5 mi
6:00 PM79 °FPartly sunny.8 mph79%29.83 "Hg5 mi
5:00 PM81 °FScattered clouds.12 mph74%29.83 "HgN/A
4:00 PM81 °FScattered clouds.9 mph74%29.83 "HgN/A
3:00 PM82 °FPartly sunny.12 mph66%29.83 "HgN/A
2:00 PM82 °FScattered clouds.12 mph70%29.86 "HgN/A
1:00 PM82 °FPartly sunny.12 mph66%29.89 "HgN/A
12:00 PM81 °FPartly sunny.9 mph74%29.92 "HgN/A
11:00 AM81 °FPartly sunny.8 mph74%29.92 "HgN/A
Weather by CustomWeather, © 2015

See weather overviewHow to use our weather pages